Flag for Germany Weather past 2 weeks in Iserlohn, North Rhine-Westphalia, Germany

Now
52 °F

Partly sunny.


Feels Like: 50 °F
Forecast: 44 / 61 °F
Wind: 6 mph from Southwest

Location: Dortmund / Wickede

Current Time: May 28, 2015 at 10:58:36 PM

Latest Report: May 28, 2015 at 10:20 PM


Visibility: N/A

Pressure: 29.95 "Hg

Humidity: 88%

Dew point: 48 °F

Location of IserlohnLocation

Historic Weather in Iserlohn — Graph

°F

Iserlohn temperature yesterday

Maximum temperature yesterday: 61 °F (at 5:50 PM)
Minimum temperature yesterday: 45 °F (at 5:20 AM)
Average temperature yesterday: 55 °F

Past Weeks' High & Low Weather Summary

 TemperatureHumidityPressure
High68 °F (May 22, 3:50 PM)94% (May 25, 11:50 AM)30.33 "Hg (May 25, 11:50 AM)
Low39 °F (May 14, 5:20 AM)32% (May 21, 3:50 PM)29.62 "Hg (May 18, 7:20 PM)
Average55 °F61%30.05 "Hg
* Reported May 13 9:20 PM — May 28 9:50 PM, Iserlohn, Weather by CustomWeather, © 2015

Note: Actual official high and low records may vary slightly from our data, if they occured in-between our weather recording intervals... More about our weather records

Advertising

Iserlohn weather history for previous 24 hours

 ConditionsComfort  
Time TempWeatherWind HumidityBarometerVisibility
9:50 PM
Thu, May 28
52 °FSunny.8 mph88%29.95 "Hg10 mi
9:20 PM52 °FSunny.9 mph88%29.92 "Hg10 mi
8:50 PM52 °FBroken clouds.9 mph88%29.92 "HgN/A
8:20 PM52 °FLight rain. Partly sunny.6 mph88%29.92 "HgN/A
7:50 PM52 °FLight rain. Clear.10 mph88%29.92 "Hg4 mi
7:20 PM52 °FSprinkles. Partly sunny.12 mph88%29.92 "Hg4 mi
6:50 PM54 °FScattered showers. Clear.10 mph82%29.92 "HgN/A
6:20 PM54 °FSprinkles. Clear.9 mph82%29.92 "HgN/A
5:50 PM52 °FSprinkles. Partly sunny.9 mph88%29.92 "Hg4 mi
5:20 PM54 °FSprinkles. Partly sunny.20 mph82%29.92 "HgN/A
4:50 PM63 °FScattered showers. Scattered clouds.18 mph45%29.89 "HgN/A
4:20 PM64 °FScattered showers. Scattered clouds.21 mph46%29.89 "HgN/A
3:50 PM63 °FScattered clouds.16 mph52%29.89 "HgN/A
3:20 PM63 °FScattered clouds.18 mph52%29.89 "HgN/A
2:50 PM63 °FSunny.18 mph49%29.89 "Hg10 mi
2:20 PM64 °FScattered clouds.16 mph46%29.89 "HgN/A
1:50 PM64 °FPassing clouds.15 mph46%29.89 "HgN/A
1:20 PM63 °FScattered clouds.16 mph49%29.89 "HgN/A
12:50 PM63 °FScattered clouds.18 mph49%29.89 "HgN/A
12:20 PM63 °FScattered clouds.18 mph49%29.92 "HgN/A
11:50 AM63 °FSunny.18 mph45%29.92 "Hg10 mi
11:20 AM61 °FPassing clouds.20 mph52%29.92 "HgN/A
10:50 AM61 °FPassing clouds.17 mph48%29.92 "HgN/A
10:20 AM61 °FPassing clouds.18 mph52%29.92 "HgN/A
9:50 AM59 °FPassing clouds.14 mph55%29.92 "HgN/A
9:20 AM59 °FSunny.16 mph55%29.92 "Hg10 mi
8:50 AM57 °FSunny.15 mph59%29.95 "Hg10 mi
8:20 AM57 °FPassing clouds.14 mph55%29.95 "HgN/A
7:50 AM55 °FSunny.14 mph59%29.95 "Hg10 mi
7:20 AM54 °FSunny.15 mph58%29.95 "Hg10 mi
6:50 AM54 °FPassing clouds.13 mph58%29.95 "HgN/A
6:20 AM54 °FPassing clouds.16 mph58%29.95 "HgN/A
5:50 AM54 °FClear.14 mph58%29.95 "Hg10 mi
5:20 AM54 °FClear.14 mph58%29.95 "Hg10 mi
10:50 PM
Wed, May 27
54 °FClear.8 mph54%30.07 "Hg10 mi
10:20 PM54 °FSunny.9 mph54%30.09 "Hg10 mi
Weather by CustomWeather, © 2015

See weather overviewHow to use our weather pages